Regional Weather Roundup
Issued by NWS San Angelo, TX

Home | Current Version | Previous Version | Text Only | Print | Product List | Glossary On
Versions: 1 2 3 4 5 6 7 8 9 10 11 12 13 14 15 16 17 18 19 20 21 22 23 24 25 26 27 28 29 30 31 32 33 34 35 36 37 38 39 40 41 42 43 44 45 46 47 48 49 50
000
ASUS44 KSJT 171210
RWRSJT
WEST CENTRAL TEXAS REGIONAL WEATHER ROUNDUP
NATIONAL WEATHER SERVICE SAN ANGELO TX
700 AM CDT THU AUG 17 2017

NOTE: "FAIR" INDICATES FEW OR NO CLOUDS BELOW 12,000 FEET WITH NO
SIGNIFICANT WEATHER AND/OR OBSTRUCTIONS TO VISIBILITY.

TXZ049-054-064>066-071>073-076>078-098-099-113-114-127-128-139-140-
154-155-168>170-171300
...LOCATIONS ACROSS WEST CENTRAL TEXAS...

CITY           SKY/WX    TMP DP  RH WIND       PRES   REMARKS
SAN ANGELO     PTCLDY    73  66  78 CALM      30.02R
ABILENE        CLOUDY    73  67  81 SW8       30.02R
DYESS AFB      PTCLDY    73  67  83 SW3       30.01R
JUNCTION       CLOUDY    79  73  82 SE3       30.03R
SWEETWATER     MOCLDY    70  67  89 SE3       30.08R
BROWNWOOD      CLOUDY    79  72  78 S5        30.02R
COLEMAN        CLOUDY    75  66  74 CALM      30.03R
SONORA         CLOUDY    77  73  88 S6        30.08R
OZONA          FAIR      75  68  78 CALM      30.07R
BRADY          NOT AVBL
$$

TEXAS PANHANDLE/OKLAHOMA PANHANDLE

CITY           SKY/WX    TMP DP  RH WIND       PRES   REMARKS
AMARILLO       CLEAR     66  59  78 SE6       30.13R
BORGER         CLEAR     65  60  84 CALM      30.11R
CANADIAN       CLOUDY    65  64  96 CALM      30.08R
DALHART        CLOUDY    65  57  75 N3        30.17R
DUMAS          CLOUDY    61  56  85 NW3       30.15R
GUYMON         NOT AVBL
HEREFORD       SUNNY     62  58  88 CALM      30.16S
PAMPA          CLOUDY    64  61  88 NE3       30.12R
PERRYTON       CLOUDY    63  60  92 W6        30.09S
$$

SOUTHERN PANHANDLE/SOUTH PLAINS/ROLLING PLAINS

CITY           SKY/WX    TMP DP  RH WIND       PRES   REMARKS
LUBBOCK        PTCLDY    70  64  83 CALM      30.10R
SNYDER         CLEAR     69  65  85 CALM      30.05R
CHILDRESS      CLEAR     69  65  86 N7        30.03R
SEMINOLE       SUNNY     65  64  96 E5        30.10R
$$

PERMIAN BASIN

CITY           SKY/WX    TMP DP  RH WIND       PRES   REMARKS
MIDLAND        CLEAR     73  66  78 SE8       30.04R
ODESSA         CLEAR     72  67  84 SE7       30.06R
WINK           CLEAR     73  66  78 SE9       30.02R
$$

FAR WEST/SOUTHWEST MOUNTAINS/TRANS PECOS

CITY           SKY/WX    TMP DP  RH WIND       PRES   REMARKS
ALPINE         SUNNY     66  59  78 SW3       30.20R
DRYDEN           N/A     75  70  84 N5        30.01R
EL PASO        PTCLDY    72  57  59 SE5       30.08R
FORT STOCKTON  CLEAR     72  63  73 SE10      30.04R
GUADALUPE PASS CLEAR     73  55  53 SW7       30.22R
MARFA          CLEAR     62  57  83 CALM      30.19R
PECOS          SUNNY     69  60  73 N5        30.02R
$$

DALLAS/FORT WORTH METROPLEX

CITY           SKY/WX    TMP DP  RH WIND       PRES   REMARKS
DFW AIRPORT    CLOUDY    74  73  97 E5        29.98R
FTW MEACHAM    CLOUDY    77  73  87 NE9       29.98S
DAL-EXECUTIVE  TSTM      72  71  97 NE17G28   29.97F VSB 3/4
GRAND PRAIRIE  MOCLDY    75  70  83 NE9G23    30.01R
ADDISON        RAIN      72  70  94 MISG      30.01S
MESQUITE       CLOUDY    70  70 100 N13G20    30.04R
LANCASTER      CLOUDY    74  70  85 NE18G25   30.01R
$$

NORTH CENTRAL TEXAS

CITY           SKY/WX    TMP DP  RH WIND       PRES   REMARKS
SHRMAN/DENISON TSTM      74  71  91 S17       29.97S
GAINESVILLE    CLOUDY    71  69  95 SE7       29.98F
BRIDGEPORT     CLOUDY    74  71  89 E3        30.00R
DENTON         CLOUDY    73  73 100 S6        29.96F
WAXAHACHIE     CLOUDY    79  75  87 S3        30.00R
GRANBURY       MOSUNNY   82  73  74 S6        29.99R
$$

WESTERN NORTH TEXAS

CITY           SKY/WX    TMP DP  RH WIND       PRES   REMARKS
WICHITA FALLS  NOT AVBL
VERNON         SUNNY     71  67  88 N5        29.99R
BRECKENRIDGE   CLOUDY    78  68  69 S7        29.99R
COMANCHE       PTCLDY    80  73  78 S9G17     30.01R
$$

CENTRAL AND SOUTH CENTRAL TEXAS

CITY           SKY/WX    TMP DP  RH WIND       PRES   REMARKS
AUSTIN/BERGSTM MOCLDY    81  76  84 S8        30.00S
WACO           PTCLDY    82  75  79 S14       29.98R
HILLSBORO      PTSUNNY   81  75  84 S12       29.99R
TEMPLE         CLOUDY    80  75  84 S9        30.01S
KILLEEN-GRAY   CLOUDY    80  73  79 S10       30.01R
FORT HOOD      CLOUDY    79  72  80 S10       29.98R
GEORGETOWN     CLOUDY    81  74  79 SW9       30.03S
LAGO VISTA     PTSUNNY   80  73  81 SW9       30.04R
SAN MARCOS     CLOUDY    81  75  83 S3          N/A
NEW BRAUNFELS  CLOUDY    79  75  87 SW5       30.00R
RANDOLPH AFB   MOCLDY    78  78 100 SE3       30.01S
SAN ANTONIO    CLOUDY    80  74  81 SE10      30.02R
STINSON        MOCLDY    79  75  87 CALM      29.99R
PLEASANTON     NOT AVBL
LA GRANGE      PTCLDY    81  79  94 S3        29.99S
GIDDINGS       MOSUNNY   78  75  90 S3        30.02S
$$

EAST TEXAS

CITY           SKY/WX    TMP DP  RH WIND       PRES   REMARKS
PARIS          CLOUDY    70  69  97 S7        30.00S
CLARKSVILLE    NOT AVBL
TYLER          CLOUDY    81  78  91 SW10      30.00R
LONGVIEW       MOCLDY    80  78  94 SW13      29.99R
PALESTINE      CLOUDY    80  77  91 S9        30.00S
NACOGDOCHES    NOT AVBL
$$

TEXAS HILL COUNTRY AND EDWARDS PLATEAU

CITY           SKY/WX    TMP DP  RH WIND       PRES   REMARKS
LLANO          MOSUNNY   81  73  78 S3        30.05S
HORSESHOE BAY  FAIR      78  72  82 CALM      30.03S
KERRVILLE      MOCLDY    76  74  91 SE7       30.05S
FREDERICKSBRG  PTCLDY    76  69  81 S5        30.06R
ROCKSPRINGS    NOT AVBL
HONDO          CLOUDY    81  75  82 E5        30.01R
UVALDE         HVY RAIN  76  72  88 CALM      30.01R VSB<1/4
DEL RIO        PTCLDY    80  72  76 E8        29.95R
$$

SOUTHEAST TEXAS

CITY           SKY/WX    TMP DP  RH WIND       PRES   REMARKS
COLLEGE STN    CLEAR     80  78  94 S6        30.01S
CALDWELL       NOT AVBL
CROCKETT       MOSUNNY   77  75  94 CALM      30.04R
BRENHAM        MOCLDY    80  79  97 CALM      30.02S FOG
HUNTSVILLE     MOCLDY    83  76  79 S9        30.02R
CONROE         CLOUDY    82  77  84 S7        30.02R
HOUSTON BUSH   PTCLDY    83  77  82 S5        30.02R
HOUSTON HOBBY  PTCLDY    82  76  81 S3        30.01R
PERLAND        MOCLDY    83  76  79 CALM      30.03R
WHARTON        SUNNY     78  74  88 CALM      30.02S
$$

THE UPPER TEXAS COAST

CITY           SKY/WX    TMP DP  RH WIND       PRES   REMARKS
ORANGE         MOSUNNY   83  79  87 S6        30.04R
PORT ARTHUR    CLOUDY    80  77  90 S6        30.02R
GALVESTON      MOCLDY    86  78  77 SW10G22   30.03R
ANGLETON       CLOUDY    82  78  88 S3        30.02R
BAY CITY       MOSUNNY   80  76  88 SW3       30.02R
$$

TEXAS COASTAL BEND, RIO GRANDE PLAINS DEEP SOUTH TEXAS

CITY           SKY/WX    TMP DP  RH WIND       PRES   REMARKS
VICTORIA       CLOUDY    80  77  90 S6        30.00R
BEEVILLE       FAIR     N/A N/A N/A SE7       29.98S
ROCKPORT       PTCLDY    82  77  84 S7        29.98R
PORT ARANSAS   CLOUDY    82  78  88 S9        29.99R
PORT LAVACA    PTSUNNY   80  76  87 S5        30.01R
CORPUS CHRISTI PTCLDY    79  78  97 S6        29.97R
KINGSVILLE NAS PTCLDY    80  79  96 S8        29.97R FOG
COTULLA        PTCLDY    80  74  81 SE7       29.97R
LAREDO         CLEAR     81  73  78 MISG        N/A
BROWNSVILLE    MOCLDY    79  79 100 SE6       29.98R
PORT ISABEL    CLOUDY    81  78  91 SE7       29.97R
HEBBRONVILLE   PTSUNNY   77  73  89 SE7       29.99R
MCALLEN        CLEAR     82  76  81 SE10      29.97R
WESLACO        CLEAR     80  76  88 S3        29.96R
FALFURRIAS     SUNNY     79  77  92 SE3       29.97R
EDINBURG       MOSUNNY   82  76  82 SE5       29.97R
$$



USA.gov is the U.S. government's official web portal to all federal, state and local government web resources and services.